Regional Weather Roundup
Issued by NWS Newport/Morehead, NC

Current Version | Previous Version | Text Only | Print | Product List | Glossary Off
Versions: 1 2 3 4 5 6 7 8 9 10 11 12 13 14 15 16 17 18 19 20 21 22 23 24 25 26 27 28 29 30 31 32 33 34 35 36 37 38 39 40 41 42 43 44 45 46 47 48 49 50
000 ASUS42 KMHX 211825 RWRMHX WEATHER ROUNDUP FOR EASTERN NORTH CAROLINA NATIONAL WEATHER SERVICE NEWPORT/MOREHEAD CITY NC 200 PM EDT SAT OCT 21 2017 NOTE: "FAIR" INDICATES FEW OR NO CLOUDS BELOW 12,000 FEET WITH NO SIGNIFICANT WEATHER AND/OR OBSTRUCTIONS TO VISIBILITY NCZ015>017-031-032-045>047-102-103-211900- NORTH COAST CITY SKY/WX TMP DP RH WIND PRES REMARKS EDENTON SUNNY 76 58 53 CALM 30.32F ELIZABETH CITY SUNNY 77 53 43 CALM 30.31F KITTY HAWK CLEAR 72 57 60 CALM 30.32S MANTEO SUNNY N/A N/A N/A E8 30.33S $$ NCZ045>047-081-094-103-104-211900- CENTRAL COAST CITY SKY/WX TMP DP RH WIND PRES REMARKS FRISCO SUNNY 75 62 64 VRB6 30.32F $$ NCZ095-097-098-100-101-211900- SOUTHERN COAST CITY SKY/WX TMP DP RH WIND PRES REMARKS BEAUFORT SUNNY 77 59 53 VRB3 30.30F CEDAR ISLAND NOT AVBL JACKSONVILLE MOSUNNY 77 53 43 E3 30.30F PINEY ISLAND N/A N/A N/A N/A NE12 30.31F WILMINGTON SUNNY 77 57 50 SE6 30.30F $$ NCZ011>013-027>030-043-044-078>080-089-090>093-098-211900- COASTAL PLAIN CITY SKY/WX TMP DP RH WIND PRES REMARKS AHOSKIE SUNNY 76 54 47 CALM 30.31F CLINTON SUNNY 80 55 42 NE3 30.30F ELIZABETHTOWN NOT AVBL GOLDSBORO SUNNY 78 52 39 E7 30.29F GREENVILLE SUNNY 79 52 38 CALM 30.32F HAVELOCK SUNNY 78 57 48 NE7 30.31F KENANSVILLE SUNNY 77 54 44 S3 30.30F KINSTON SUNNY 79 50 36 CALM 30.31F NEW BERN SUNNY 78 55 44 SE6 30.32F RICHLANDS SUNNY 77 54 44 VRB6 30.31F ROCKY MOUNT SUNNY 76 54 46 CALM 30.31F WASHINGTON SUNNY 77 56 47 CALM 30.31F WHITEVILLE SUNNY 77 53 43 N3 30.29F $$ AMZ130-135-150-152-154-156-158-170-250-252-270-ANZ085-086-088-633-658-670-211900- MARINE OBSERVATIONS STATION/POSITION TIME TEMP WIND PRES WAVE SWELL AIR SEA DIR/SP/G HT/PER HT/PER (UTC) (F) (DEG/KT/KT) (MB) (FT/S) (FT/S) CHESAPEAKE LIGHT NOT AVBL 64 E VA BEACH 1750 68 69 10/ 6/ 6 1027.4 2/ 9 2/ 9 DUCK 1800 69 70 40/ 8/ 10 1026.4 2 E DUCK 1800 71 N/A 2/ 8 OREGON INLET 1800 70 69 30/ 6/ 10 1026.7 13E OREGON INLT 1748 73 N/A 3/ 8 3/ 8 HATTERAS CG 1800 70 71 20/ 9/ 11 1026.6 DIAMOND BUOY 1750 73 81 20/ 8/ 12 1026.3 3/ 8 3/ 8 CAPE LOOKOUT 1800 72 50/ 12/ 12 1026.0 BEAUFORT LAB 1800 74 72 130/ 8/ 11 1026.2 30 SE NEW RVR IN 1808 74 50/ 10/ 14 1025.8 30 SE NEW RVR IN NOT AVBL 27 SE WRIGHTSVLE 1808 74 76 80/ 8/ 12 1026.0 5 SE WRIGHTSVLE 1808 73 74 80/ 10/ 14 1025.9 225 S CAPE HAT 1750 77 80 70/ 12/ 14 1024.4 4/ 8 3/ 8 41 SE CHARLESTON 1810 76 80 40/ 17/ 21 1024.1 $$

USA.gov is the U.S. government's official web portal to all federal, state and local government web resources and services.